Location: Central Falls
(41.8900°N, 71.3929°W)
Time: 13:13:18
(UTC+00:00)

Vanguard 2 - Pass Details

Date: 08 December 2023
Orbit: 554 x 2918 km, 32.9° (Epoch: 04 March)

Event Time Altitude Azimuth Distance (km) Brightness Sun altitude
Rises 00:06:41 0° 225° (SW) 6,479 12.9 -31.3°
Reaches altitude 10° 00:11:07 10° 219° (SW) 5,619 12.3 -32.1°
Maximum altitude 00:27:06 44° 155° (SSE) 3,586 10.6 -35.1°
Enters shadow 00:29:41 42° 137° (SE) 3,598 10.5 -35.5°
